User: anonymous   Login
Location: Columbia
(38.9520°N, 92.3340°W)
Time: 22:59:47
(UTC-06:00)
Language:

Iridium 52 - Orbit

View from above orbital plane
View from above orbital plane
View from above satellite
View from above satellite

Ground track
Ground track

The orbit data is extracted from the following two-line orbital elements,

1 25169U 98010A   14332.53580397  .00000502  00000-0  17213-3 0  7839
2 25169 086.3971 019.7929 0002208 107.5291 009.1057 14.34224405878243
Epoch (UTC): 28 November 2014 12:51:33
Eccentricity: 0.0002208
inclination: 86.3971°
perigee height: 776 km
apogee height: 779 km
right ascension of ascending node: 19.7929°
argument of perigee: 107.5291°
revolutions per day: 14.34224405
mean anomaly at epoch: 9.1057°
orbit number at epoch: 87824

The dashed part of the orbit path shows where the satellite is in the earth's shadow,  

DLR